Find OneWeb SL0347

NORAD ID: 49280 Int'l Des: 2021-090 Owner: ONEWEBN Country: UK Constellation: oneweb operational
LEOCIRCULARPOLARONEWEB_TYPE

現在のビュー

3D地球を読み込み中...

About OneWeb SL0347

OneWeb SL0347 (NORAD 49280) is a oneweb constellation satellite launched Oct 14, 2021 by ONEWEBN of UK. It operates in LEO, CIRCULAR, POLAR, ONEWEB_TYPE orbit with a mass of 148.00 kg.

OneWeb SL0347について

説明を読み込み中...

次回通過

Passes for default location (London). Set your location on the main map for personalized predictions.

高度履歴

Loading altitude history...

軌道要素

1 49280U 21090B 26171.30202316 .00000122 00000-0 26798-3 0 9999
2 49280 87.9195 273.8198 0001769 101.5168 258.6164 13.20771684231453
Epoch: Jun 20, 2026 • Age: 21 hours

現在のステータス

高度 1184.2 km
速度 7.26 km/s
衛星直下点 1.97°N, 122.01°E
打ち上げ日 Oct 14, 2021
運用期間 4.6 years
タイプ internet

技術仕様

分類 Payload
質量 148.00 kg
乾燥質量 140.00 kg
総質量 148.00 kg
長さ 1.30 m
直径 1.00 m
スパン 5.00 m
形状 Trapezoid+2 pan
製造者 ONEWUS
バスタイプ ARROW
フェーズステータス In Orbit
所有者/国 ONEWEBN/UK

Most Searched